sat.trackr.live / text

‹ back to catalog

STRIX-3

NORAD 59224 · 2024-047A

PAYLOAD ACTIVE UNKNOWN

§ Identity

Operator
Country
JPN
Launch date
2024-03-12
Launch site
RLLB
Launch vehicle
Mass (kg)
RCS (m²)

External: N2YO · Heavens-Above · Gunter

§ Orbital elements

Epoch: 2026-09-22T22:23:49.614432Z

Period
94.70 min
Inclination
97.6724°
Eccentricity
0.0014737
Mean motion
15.20671202 rev/d
Perigee alt
493.7 km
Apogee alt
514.0 km
Semi-major
6,882.0 km
B*
2.4880e-4
RAAN
243.2022°
Arg perigee
83.7947°
Mean anomaly
276.4967°
Rev number
13,959

§ Raw data

STRIX-31 59224U 24047A   26265.93321313  .00005407  00000+0  24880-3 0  99952 59224  97.6724 243.2022 0014737  83.7947 276.4967 15.20671202139598

JSON: /api/v1/satellites/59224 · /tle

For live sub-satellite position, see the globe view (requires WebGL).

§ Visibility from observer

Set your observer location to see the next 7 days of passes ≥ 10°. The values pass through the URL so the page stays shareable.

No JS? Fill the form by hand. The geolocation button needs JavaScript.

§ Radio — SatNOGS DB

ModeDescriptionDownlinkUplink
FM Mode S 2 2.277 GHz
FM Mode S 3 2.228 GHz

2 transmitters · refreshed weekly from db.satnogs.org